Regional Weather Roundup
Issued by NWS Binghamton, NY

Home | Current Version | Previous Version | Text Only | Print | Product List | Glossary On
Versions: 1 2 3 4 5 6 7 8 9 10 11 12 13 14 15 16 17 18 19 20 21 22 23 24 25 26 27 28 29 30 31 32 33 34 35 36 37 38 39 40 41 42 43 44 45 46 47 48 49 50
000
ASUS41 KBGM 211210
RWRBGM
RWRBGM
BINGHAMTON REGIONAL WEATHER ROUNDUP
NATIONAL WEATHER SERVICE BINGHAMTON NY
800 AM EDT TUE OCT 21 2014

Note: "fair" indicates few or no clouds below 12,000 feet with no
significant weather and/or obstructions to visibility.

* = Station(s) that does not report precipitation, such as rain,
snow, etc, also no thunder or fog.

!NYZ009-015>018-022>025-036-037-044>046-055>057-062-211300
...CENTRAL NEW YORK...

CITY           SKY/WX    TMP DP  RH WIND       PRES   REMARKS
BINGHAMTON     CLOUDY    47  43  86 SE6       29.83R
CORTLAND       CLOUDY    45  45 100 CALM      29.84S
DANSVILLE      RAIN      49  47  93 E6        29.82R
ELMIRA         LGT RAIN  47  46  97 CALM      29.83R
ITHACA         CLOUDY    48  43  83 SE5       29.84R
HAMILTON       CLOUDY    46  45  93 CALM      29.86R
MONTICELLO     CLOUDY    45  43  93 E6        29.90R
NORWICH        CLOUDY    46  43  87 CALM      29.86S
ONEONTA        MOCLDY    46  41  81 CALM      29.85S
PENN YAN       LGT RAIN  48  50 100 S5        29.82R
ROME           CLOUDY    46  45  96 SE6       29.88R
SIDNEY         CLOUDY    50  48  93 CALM      29.86R
SYRACUSE       DRIZZLE   48  45  90 E6        29.84R FOG
$$

!PAZ038>040-043-044-047-048-072-211300
...NORTHEAST PENNSYLVANIA...

CITY           SKY/WX    TMP DP  RH WIND       PRES   REMARKS
HAZLETON       CLOUDY    50  48  93 CALM      29.89R FOG
SCRANTON       CLOUDY    52  48  86 CALM      29.86R
TOWANDA*       PTCLDY    46  46 100 CALM      29.85R
$$
&&
KEY
WCI = WIND CHILL INDEX
VSB = VISIBILITY
HX  = HEAT INDEX
$$


USA.gov is the U.S. government's official web portal to all federal, state and local government web resources and services.